| time (UTC) | temp F | wind direction | speed MPH | gust MPH | rain 1hr in | rain 24hr in | rain mn in | humidity % | barometer mb |
| 20260510130036 | 55 | 317 | 3.0 | 6.0 | 0.00 | 0.00 | 0.00 | 35 | 1003.8 |
| 20260510124519 | 55 | 317 | 2.0 | 6.0 | 0.00 | 0.00 | 0.00 | 34 | 1003.4 |
| 20260510123013 | 55 | 317 | 2.0 | 4.0 | 0.00 | 0.00 | 0.00 | 34 | 1003.4 |
| 20260510121509 | 56 | 317 | 1.0 | 4.0 | 0.00 | 0.00 | 0.00 | 32 | 1003.4 |
| 20260510120023 | 57 | 317 | 4.0 | 6.0 | 0.00 | 0.00 | 0.00 | 31 | 1003.2 |
| 20260510114513 | 58 | 317 | 4.0 | 6.0 | 0.00 | 0.00 | 0.00 | 30 | 1003.2 |
| 20260510113004 | 58 | 317 | 4.0 | 9.0 | 0.00 | 0.00 | 0.00 | 29 | 1003.0 |
| 20260510111503 | 58 | 317 | 3.0 | 4.0 | 0.00 | 0.00 | 0.00 | 28 | 1002.8 |
| 20260510110003 | 58 | 317 | 2.0 | 8.0 | 0.00 | 0.00 | 0.00 | 27 | 1002.6 |
| 20260510104501 | 58 | 317 | 5.0 | 8.0 | 0.00 | 0.00 | 0.00 | 28 | 1002.4 |
| 20260510103059 | 57 | 317 | 4.0 | 9.0 | 0.00 | 0.00 | 0.00 | 30 | 1002.5 |
| 20260510101557 | 57 | 317 | 2.0 | 5.0 | 0.00 | 0.00 | 0.00 | 29 | 1002.3 |
| 20260510100100 | 57 | 317 | 2.0 | 3.0 | 0.00 | 0.00 | 0.00 | 28 | 1002.2 |
| 20260510094550 | 58 | 317 | 1.0 | 2.0 | 0.00 | 0.00 | 0.00 | 26 | 1002.0 |
| 20260510093053 | 59 | 317 | 0.0 | 1.0 | 0.00 | 0.00 | 0.00 | 26 | 1001.8 |
| 20260510091547 | 59 | 317 | 0.0 | 4.0 | 0.00 | 0.00 | 0.00 | 26 | 1001.6 |
| 20260510090047 | 59 | 317 | 2.0 | 6.0 | 0.00 | 0.00 | 0.00 | 26 | 1001.1 |
| 20260510084544 | 58 | 317 | 2.0 | 6.0 | 0.00 | 0.00 | 0.00 | 27 | 1001.0 |
| 20260510083056 | 58 | 317 | 2.0 | 6.0 | 0.00 | 0.00 | 0.00 | 27 | 1000.9 |
| 20260510081543 | 58 | 317 | 2.0 | 6.0 | 0.00 | 0.00 | 0.00 | 27 | 1000.8 |
| 20260510080040 | 59 | 317 | 3.0 | 6.0 | 0.00 | 0.00 | 0.00 | 26 | 1000.9 |
| 20260510074543 | 60 | 317 | 4.0 | 9.0 | 0.00 | 0.00 | 0.00 | 26 | 1000.9 |
| 20260510073040 | 59 | 317 | 5.0 | 8.0 | 0.00 | 0.00 | 0.00 | 26 | 1000.9 |
| 20260510071541 | 58 | 317 | 3.0 | 6.0 | 0.00 | 0.00 | 0.00 | 27 | 1000.9 |
| 20260510070037 | 59 | 317 | 3.0 | 8.0 | 0.00 | 0.00 | 0.00 | 26 | 1000.9 |
| 20260510064535 | 60 | 317 | 4.0 | 9.0 | 0.00 | 0.00 | 0.00 | 25 | 1000.8 |
| 20260510063033 | 61 | 317 | 5.0 | 9.0 | 0.00 | 0.00 | 0.00 | 24 | 1000.9 |
| 20260510061529 | 61 | 317 | 5.0 | 9.0 | 0.00 | 0.00 | 0.00 | 24 | 1000.8 |
| 20260510060031 | 61 | 317 | 5.0 | 10.0 | 0.00 | 0.00 | 0.00 | 23 | 1000.8 |
| 20260510054525 | 62 | 317 | 4.0 | 11.0 | 0.00 | 0.00 | 0.00 | 22 | 1000.6 |
| 20260510053026 | 63 | 317 | 6.0 | 12.0 | 0.00 | 0.00 | 0.00 | 21 | 1000.6 |
| 20260510051525 | 64 | 317 | 6.0 | 13.0 | 0.00 | 0.00 | 0.00 | 20 | 1000.6 |
| 20260510050023 | 64 | 317 | 8.0 | 12.0 | 0.00 | 0.00 | 0.00 | 19 | 1000.6 |
| 20260510044525 | 65 | 317 | 5.0 | 13.0 | 0.00 | 0.00 | 0.00 | 18 | 1000.6 |
| 20260510043023 | 65 | 317 | 6.0 | 11.0 | 0.00 | 0.00 | 0.00 | 18 | 1000.6 |
| 20260510041523 | 64 | 317 | 5.0 | 8.0 | 0.00 | 0.00 | 0.00 | 17 | 1000.6 |
| 20260510040022 | 65 | 317 | 3.0 | 7.0 | 0.00 | 0.00 | 0.00 | 16 | 1000.4 |
| 20260510034527 | 65 | 317 | 3.0 | 7.0 | 0.00 | 0.00 | 0.00 | 15 | 1000.3 |
| 20260510033024 | 66 | 317 | 5.0 | 10.0 | 0.00 | 0.00 | 0.00 | 14 | 1000.1 |
| 20260510031523 | 67 | 317 | 6.0 | 9.0 | 0.00 | 0.00 | 0.00 | 13 | 999.9 |
| 20260510030025 | 67 | 317 | 2.0 | 4.0 | 0.00 | 0.00 | 0.00 | 13 | 999.7 |
| 20260510024520 | 68 | 317 | 2.0 | 4.0 | 0.00 | 0.00 | 0.00 | 12 | 999.4 |
| 20260510023019 | 69 | 317 | 3.0 | 5.0 | 0.00 | 0.00 | 0.00 | 12 | 999.1 |
| 20260510021525 | 70 | 317 | 2.0 | 8.0 | 0.00 | 0.00 | 0.00 | 11 | 998.9 |
| 20260510020020 | 71 | 317 | 4.0 | 8.0 | 0.00 | 0.00 | 0.00 | 11 | 998.7 |
| 20260510014519 | 72 | 316 | 6.0 | 14.0 | 0.00 | 0.00 | 0.00 | 11 | 998.6 |
| 20260510013017 | 74 | 316 | 7.0 | 15.0 | 0.00 | 0.00 | 0.00 | 9 | 998.4 |
| 20260510011517 | 75 | 319 | 7.0 | 17.0 | 0.00 | 0.00 | 0.00 | 9 | 998.3 |
| 20260510010016 | 75 | 328 | 8.0 | 22.0 | 0.00 | 0.00 | 0.00 | 9 | 998.1 |
| 20260510004516 | 76 | 307 | 7.0 | 13.0 | 0.00 | 0.00 | 0.00 | 9 | 998.1 |
| 20260510003016 | 76 | 307 | 9.0 | 15.0 | 0.00 | 0.00 | 0.00 | 9 | 998.0 |
| 20260510001515 | 76 | 304 | 8.0 | 14.0 | 0.00 | 0.00 | 0.00 | 9 | 998.1 |
| 20260510000015 | 77 | 303 | 8.0 | 14.0 | 0.00 | 0.00 | 0.00 | 9 | 998.0 |
| 20260509234529 | 76 | 302 | 8.0 | 17.0 | 0.00 | 0.00 | 0.00 | 9 | 998.0 |
| 20260509233013 | 77 | 303 | 8.0 | 18.0 | 0.00 | 0.00 | 0.00 | 8 | 997.9 |
| 20260509231517 | 78 | 304 | 6.0 | 19.0 | 0.00 | 0.00 | 0.00 | 8 | 997.9 |
| 20260509230012 | 78 | 303 | 8.0 | 14.0 | 0.00 | 0.00 | 0.00 | 8 | 997.9 |
| 20260509224526 | 78 | 302 | 6.0 | 16.0 | 0.00 | 0.00 | 0.00 | 8 | 997.9 |
| 20260509223011 | 77 | 302 | 8.0 | 15.0 | 0.00 | 0.00 | 0.00 | 8 | 998.0 |
| 20260509221509 | 76 | 306 | 5.0 | 10.0 | 0.00 | 0.00 | 0.00 | 9 | 998.1 |
| 20260509220007 | 78 | 306 | 3.0 | 14.0 | 0.00 | 0.00 | 0.00 | 8 | 998.3 |
| 20260509214506 | 79 | 306 | 8.0 | 15.0 | 0.00 | 0.00 | 0.00 | 9 | 998.4 |
| 20260509213006 | 75 | 304 | 4.0 | 15.0 | 0.00 | 0.00 | 0.00 | 11 | 998.7 |
| 20260509211508 | 77 | 305 | 9.0 | 14.0 | 0.00 | 0.00 | 0.00 | 10 | 998.8 |
| 20260509210002 | 77 | 303 | 5.0 | 14.0 | 0.00 | 0.00 | 0.00 | 11 | 999.2 |
| 20260509204608 | 77 | 309 | 5.0 | 14.0 | 0.00 | 0.00 | 0.00 | 10 | 999.3 |
| 20260509203115 | 76 | 308 | 5.0 | 9.0 | 0.00 | 0.00 | 0.00 | 10 | 999.7 |
| 20260509201559 | 78 | 308 | 8.0 | 19.0 | 0.00 | 0.00 | 0.00 | 10 | 999.9 |
| 20260509200057 | 77 | 311 | 4.0 | 11.0 | 0.00 | 0.00 | 0.00 | 10 | 1000.0 |
| 20260509194553 | 79 | 311 | 2.0 | 10.0 | 0.00 | 0.00 | 0.00 | 11 | 1000.2 |
| 20260509193053 | 77 | 311 | 5.0 | 10.0 | 0.00 | 0.00 | 0.00 | 11 | 1000.4 |
| 20260509191551 | 78 | 313 | 7.0 | 14.0 | 0.00 | 0.00 | 0.00 | 11 | 1000.5 |
| 20260509190048 | 76 | 313 | 1.0 | 7.0 | 0.00 | 0.00 | 0.00 | 12 | 1000.9 |
| 20260509184549 | 76 | 313 | 4.0 | 14.0 | 0.00 | 0.00 | 0.00 | 13 | 1001.0 |
| 20260509183043 | 76 | 337 | 1.0 | 6.0 | 0.00 | 0.00 | 0.00 | 12 | 1001.2 |
| 20260509181558 | 75 | 337 | 5.0 | 11.0 | 0.00 | 0.00 | 0.00 | 13 | 1001.7 |
| 20260509180106 | 75 | 337 | 4.0 | 12.0 | 0.00 | 0.00 | 0.00 | 13 | 1002.0 |
| 20260509174533 | 73 | 337 | 5.0 | 13.0 | 0.00 | 0.00 | 0.00 | 13 | 1002.0 |
| 20260509173040 | 72 | 337 | 7.0 | 15.0 | 0.00 | 0.00 | 0.00 | 13 | 1002.2 |
| 20260509171534 | 73 | 337 | 6.0 | 17.0 | 0.00 | 0.00 | 0.00 | 14 | 1002.2 |
| 20260509170045 | 73 | 334 | 9.0 | 14.0 | 0.00 | 0.00 | 0.00 | 13 | 1002.4 |
| 20260509164524 | 73 | 329 | 7.0 | 13.0 | 0.00 | 0.00 | 0.00 | 14 | 1002.4 |
| 20260509163025 | 71 | 329 | 5.0 | 8.0 | 0.00 | 0.00 | 0.00 | 15 | 1002.5 |
| 20260509161516 | 70 | 329 | 2.0 | 7.0 | 0.00 | 0.00 | 0.00 | 17 | 1002.5 |
| 20260509160012 | 70 | 329 | 3.0 | 6.0 | 0.00 | 0.00 | 0.00 | 17 | 1002.6 |
| 20260509154510 | 68 | 329 | 3.0 | 6.0 | 0.00 | 0.00 | 0.00 | 19 | 1002.7 |
| 20260509153003 | 67 | 329 | 3.0 | 7.0 | 0.00 | 0.00 | 0.00 | 20 | 1002.9 |
| 20260509151612 | 67 | 329 | 2.0 | 5.0 | 0.00 | 0.00 | 0.00 | 20 | 1003.0 |
| 20260509150055 | 65 | 329 | 1.0 | 5.0 | 0.00 | 0.00 | 0.00 | 21 | 1002.9 |
| 20260509144550 | 64 | 329 | 0.0 | 5.0 | 0.00 | 0.00 | 0.00 | 21 | 1003.2 |
| 20260509143054 | 63 | 328 | 3.0 | 7.0 | 0.00 | 0.00 | 0.00 | 23 | 1003.3 |
| 20260509141545 | 63 | 328 | 0.0 | 3.0 | 0.00 | 0.00 | 0.00 | 22 | 1003.3 |
| 20260509140040 | 62 | 328 | 1.0 | 3.0 | 0.00 | 0.00 | 0.00 | 22 | 1003.2 |
| 20260509134534 | 60 | 328 | 2.0 | 4.0 | 0.00 | 0.00 | 0.00 | 24 | 1003.2 |
| 20260509133029 | 58 | 328 | 3.0 | 5.0 | 0.00 | 0.00 | 0.00 | 27 | 1003.0 |
| 20260509131528 | 56 | 328 | 2.0 | 4.0 | 0.00 | 0.00 | 0.00 | 29 | 1002.9 |